Year,Month,Day,Hour,Minute,Value (Times are PST for temperature in C)
2013,01,11,00,00,0.60
2013,01,11,00,01,0.60
2013,01,11,00,02,0.60
2013,01,11,00,03,0.60
2013,01,11,00,04,0.60
2013,01,11,00,05,0.50
2013,01,11,00,06,0.50
2013,01,11,00,07,0.50
2013,01,11,00,08,0.50
2013,01,11,00,09,0.50
2013,01,11,00,10,0.50
2013,01,11,00,11,0.50
2013,01,11,00,12,0.50
2013,01,11,00,13,0.50
2013,01,11,00,14,0.50
2013,01,11,00,15,0.40
2013,01,11,00,16,0.40
2013,01,11,00,17,0.40
2013,01,11,00,18,0.40
2013,01,11,00,19,0.40
2013,01,11,00,20,0.40
2013,01,11,00,21,0.40
2013,01,11,00,22,0.30
2013,01,11,00,23,0.30
2013,01,11,00,24,0.30
2013,01,11,00,25,0.30
2013,01,11,00,26,0.20
2013,01,11,00,27,0.20
2013,01,11,00,28,0.20
2013,01,11,00,29,0.20
2013,01,11,00,30,0.20
2013,01,11,00,31,0.20
2013,01,11,00,32,0.20
2013,01,11,00,33,0.20
2013,01,11,00,34,0.10
2013,01,11,00,35,0.10
2013,01,11,00,36,0.10
2013,01,11,00,37,0.00
2013,01,11,00,38,0.00
2013,01,11,00,39,0.00
2013,01,11,00,40,-0.10
2013,01,11,00,41,-0.10
2013,01,11,00,42,-0.10
2013,01,11,00,43,-0.10
2013,01,11,00,44,-0.10
2013,01,11,00,45,-0.10
2013,01,11,00,46,-0.10
2013,01,11,00,47,-0.10
2013,01,11,00,48,-0.10
2013,01,11,00,49,-0.10
2013,01,11,00,50,-0.10
2013,01,11,00,51,-0.10
2013,01,11,00,52,-0.10
2013,01,11,00,53,-0.10
2013,01,11,00,54,-0.10
2013,01,11,00,55,0.00
2013,01,11,00,56,0.00
2013,01,11,00,57,0.00
2013,01,11,00,58,0.00
2013,01,11,00,59,0.00
2013,01,11,01,00,0.00
2013,01,11,01,01,0.00
2013,01,11,01,02,0.00
2013,01,11,01,03,0.00
2013,01,11,01,04,0.00
2013,01,11,01,05,0.00
2013,01,11,01,06,0.00
2013,01,11,01,07,0.00
2013,01,11,01,08,0.00
2013,01,11,01,09,0.00
2013,01,11,01,10,0.00
2013,01,11,01,11,0.00
2013,01,11,01,12,0.10
2013,01,11,01,13,0.10
2013,01,11,01,14,0.10
2013,01,11,01,15,0.10
2013,01,11,01,16,0.10
2013,01,11,01,17,0.20
2013,01,11,01,18,0.20
2013,01,11,01,19,0.20
2013,01,11,01,20,0.20
2013,01,11,01,21,0.30
2013,01,11,01,22,0.30
2013,01,11,01,23,0.30
2013,01,11,01,24,0.30
2013,01,11,01,25,0.30
2013,01,11,01,26,0.40
2013,01,11,01,27,0.40
2013,01,11,01,28,0.40
2013,01,11,01,29,0.40
2013,01,11,01,30,0.40
2013,01,11,01,31,0.40
2013,01,11,01,32,0.40
2013,01,11,01,33,0.50
2013,01,11,01,34,0.50
2013,01,11,01,35,0.60
2013,01,11,01,36,0.60
2013,01,11,01,37,0.60
2013,01,11,01,38,0.60
2013,01,11,01,39,0.60
2013,01,11,01,40,0.60
2013,01,11,01,41,0.70
2013,01,11,01,42,0.70
2013,01,11,01,43,0.70
2013,01,11,01,44,0.70
2013,01,11,01,45,0.70
2013,01,11,01,46,0.70
2013,01,11,01,47,0.70
2013,01,11,01,48,0.70
2013,01,11,01,49,0.70
2013,01,11,01,50,0.70
2013,01,11,01,51,0.70
2013,01,11,01,52,0.70
2013,01,11,01,53,0.60
2013,01,11,01,54,0.60
2013,01,11,01,55,0.60
2013,01,11,01,56,0.60
2013,01,11,01,57,0.60
2013,01,11,01,58,0.50
2013,01,11,01,59,0.50
2013,01,11,02,00,0.40
2013,01,11,02,01,0.40
2013,01,11,02,02,0.40
2013,01,11,02,03,0.30
2013,01,11,02,04,0.30
2013,01,11,02,05,0.30
2013,01,11,02,06,0.30
2013,01,11,02,07,0.20
2013,01,11,02,08,0.20
2013,01,11,02,09,0.20
2013,01,11,02,10,0.20
2013,01,11,02,11,0.20
2013,01,11,02,12,0.20
2013,01,11,02,13,0.10
2013,01,11,02,14,0.10
2013,01,11,02,15,0.10
2013,01,11,02,16,0.10
2013,01,11,02,17,0.10
2013,01,11,02,18,0.10
2013,01,11,02,19,0.10
2013,01,11,02,20,0.10
2013,01,11,02,21,0.10
2013,01,11,02,22,0.10
2013,01,11,02,23,0.10
2013,01,11,02,24,0.10
2013,01,11,02,25,0.10
2013,01,11,02,26,0.10
2013,01,11,02,27,0.10
2013,01,11,02,28,0.10
2013,01,11,02,29,0.10
2013,01,11,02,30,0.10
2013,01,11,02,31,0.10
2013,01,11,02,32,0.00
2013,01,11,02,33,0.00
2013,01,11,02,34,0.00
2013,01,11,02,35,0.00
2013,01,11,02,36,-0.10
2013,01,11,02,37,-0.10
2013,01,11,02,38,-0.10
2013,01,11,02,39,-0.10
2013,01,11,02,40,-0.10
2013,01,11,02,41,-0.10
2013,01,11,02,42,-0.10
2013,01,11,02,43,-0.20
2013,01,11,02,44,-0.20
2013,01,11,02,45,-0.20
2013,01,11,02,46,-0.20
2013,01,11,02,47,-0.20
2013,01,11,02,48,-0.30
2013,01,11,02,49,-0.30
2013,01,11,02,50,-0.30
2013,01,11,02,51,-0.30
2013,01,11,02,52,-0.30
2013,01,11,02,53,-0.30
2013,01,11,02,54,-0.30
2013,01,11,02,55,-0.30
2013,01,11,02,56,-0.30
2013,01,11,02,57,-0.30
2013,01,11,02,58,-0.30
2013,01,11,02,59,-0.40
2013,01,11,03,00,-0.40
2013,01,11,03,01,-0.40
2013,01,11,03,02,-0.40
2013,01,11,03,03,-0.40
2013,01,11,03,04,-0.40
2013,01,11,03,05,-0.40
2013,01,11,03,06,-0.40
2013,01,11,03,07,-0.40
2013,01,11,03,08,-0.40
2013,01,11,03,09,-0.40
2013,01,11,03,10,-0.40
2013,01,11,03,11,-0.50
2013,01,11,03,12,-0.50
2013,01,11,03,13,-0.50
2013,01,11,03,14,-0.50
2013,01,11,03,15,-0.40
2013,01,11,03,16,-0.40
2013,01,11,03,17,-0.40
2013,01,11,03,18,-0.40
2013,01,11,03,19,-0.40
2013,01,11,03,20,-0.30
2013,01,11,03,21,-0.30
2013,01,11,03,22,-0.30
2013,01,11,03,23,-0.30
2013,01,11,03,24,-0.30
2013,01,11,03,25,-0.30
2013,01,11,03,26,-0.30
2013,01,11,03,27,-0.30
2013,01,11,03,28,-0.30
2013,01,11,03,29,-0.30
2013,01,11,03,30,-0.30
2013,01,11,03,31,-0.30
2013,01,11,03,32,-0.30
2013,01,11,03,33,-0.30
2013,01,11,03,34,-0.30
2013,01,11,03,35,-0.30
2013,01,11,03,36,-0.30
2013,01,11,03,37,-0.40
2013,01,11,03,38,-0.40
2013,01,11,03,39,-0.40
2013,01,11,03,40,-0.40
2013,01,11,03,41,-0.40
2013,01,11,03,42,-0.50
2013,01,11,03,43,-0.50
2013,01,11,03,44,-0.50
2013,01,11,03,45,-0.50
2013,01,11,03,46,-0.50
2013,01,11,03,47,-0.50
2013,01,11,03,48,-0.60
2013,01,11,03,49,-0.60
2013,01,11,03,50,-0.60
2013,01,11,03,51,-0.60
2013,01,11,03,52,-0.60
2013,01,11,03,53,-0.60
2013,01,11,03,54,-0.60
2013,01,11,03,55,-0.70
2013,01,11,03,56,-0.70
2013,01,11,03,57,-0.70
2013,01,11,03,58,-0.70
2013,01,11,03,59,-0.70
2013,01,11,04,00,-0.80
2013,01,11,04,01,-0.80
2013,01,11,04,02,-0.70
2013,01,11,04,03,-0.70
2013,01,11,04,04,-0.70
2013,01,11,04,05,-0.70
2013,01,11,04,06,-0.70
2013,01,11,04,07,-0.80
2013,01,11,04,08,-0.80
2013,01,11,04,09,-0.80
2013,01,11,04,10,-0.80
2013,01,11,04,11,-0.80
2013,01,11,04,12,-0.80
2013,01,11,04,13,-0.80
2013,01,11,04,14,-0.80
2013,01,11,04,15,-0.80
2013,01,11,04,16,-0.80
2013,01,11,04,17,-0.80
2013,01,11,04,18,-0.90
2013,01,11,04,19,-0.90
2013,01,11,04,20,-0.90
2013,01,11,04,21,-0.90
2013,01,11,04,22,-0.90
2013,01,11,04,23,-0.90
2013,01,11,04,24,-0.90
2013,01,11,04,25,-0.90
2013,01,11,04,26,-0.90
2013,01,11,04,27,-0.90
2013,01,11,04,28,-0.90
2013,01,11,04,29,-0.90
2013,01,11,04,30,-0.90
2013,01,11,04,31,-0.90
2013,01,11,04,32,-0.90
2013,01,11,04,33,-0.90
2013,01,11,04,34,-0.90
2013,01,11,04,35,-0.90
2013,01,11,04,36,-0.90
2013,01,11,04,37,-0.90
2013,01,11,04,38,-1.00
2013,01,11,04,39,-1.00
2013,01,11,04,40,-1.00
2013,01,11,04,41,-1.00
2013,01,11,04,42,-1.00
2013,01,11,04,43,-1.00
2013,01,11,04,44,-0.90
2013,01,11,04,45,-0.90
2013,01,11,04,46,-0.90
2013,01,11,04,47,-0.90
2013,01,11,04,48,-0.90
2013,01,11,04,49,-0.90
2013,01,11,04,50,-0.90
2013,01,11,04,51,-0.90
2013,01,11,04,52,-0.90
2013,01,11,04,53,-0.90
2013,01,11,04,54,-0.90
2013,01,11,04,55,-0.90
2013,01,11,04,56,-0.90
2013,01,11,04,57,-0.90
2013,01,11,04,58,-1.00
2013,01,11,04,59,-1.00
2013,01,11,05,00,-1.00
2013,01,11,05,01,-1.00
2013,01,11,05,02,-1.10
2013,01,11,05,03,-1.10
2013,01,11,05,04,-1.10
2013,01,11,05,05,-1.10
2013,01,11,05,06,-1.10
2013,01,11,05,07,-1.10
2013,01,11,05,08,-1.10
2013,01,11,05,09,-1.10
2013,01,11,05,10,-1.10
2013,01,11,05,11,-1.10
2013,01,11,05,12,-1.10
2013,01,11,05,13,-1.10
2013,01,11,05,14,-1.10
2013,01,11,05,15,-1.10
2013,01,11,05,16,-1.10
2013,01,11,05,17,-1.10
2013,01,11,05,18,-1.20
2013,01,11,05,19,-1.20
2013,01,11,05,20,-1.20
2013,01,11,05,21,-1.20
2013,01,11,05,22,-1.20
2013,01,11,05,23,-1.20
2013,01,11,05,24,-1.20
2013,01,11,05,25,-1.20
2013,01,11,05,26,-1.20
2013,01,11,05,27,-1.20
2013,01,11,05,28,-1.20
2013,01,11,05,29,-1.20
2013,01,11,05,30,-1.20
2013,01,11,05,31,-1.20
2013,01,11,05,32,-1.20
2013,01,11,05,33,-1.20
2013,01,11,05,34,-1.20
2013,01,11,05,35,-1.20
2013,01,11,05,36,-1.30
2013,01,11,05,37,-1.30
2013,01,11,05,38,-1.30
2013,01,11,05,39,-1.30
2013,01,11,05,40,-1.30
2013,01,11,05,41,-1.30
2013,01,11,05,42,-1.30
2013,01,11,05,43,-1.30
2013,01,11,05,44,-1.30
2013,01,11,05,45,-1.30
2013,01,11,05,46,-1.30
2013,01,11,05,47,-1.30
2013,01,11,05,48,-1.30
2013,01,11,05,49,-1.30
2013,01,11,05,50,-1.30
2013,01,11,05,51,-1.30
2013,01,11,05,52,-1.30
2013,01,11,05,53,-1.30
2013,01,11,05,54,-1.20
2013,01,11,05,55,-1.20
2013,01,11,05,56,-1.20
2013,01,11,05,57,-1.20
2013,01,11,05,58,-1.20
2013,01,11,05,59,-1.30
2013,01,11,06,00,-1.30
2013,01,11,06,01,-1.30
2013,01,11,06,02,-1.30
2013,01,11,06,03,-1.20
2013,01,11,06,04,-1.20
2013,01,11,06,05,-1.20
2013,01,11,06,06,-1.20
2013,01,11,06,07,-1.20
2013,01,11,06,08,-1.20
2013,01,11,06,09,-1.20
2013,01,11,06,10,-1.30
2013,01,11,06,11,-1.30
2013,01,11,06,12,-1.30
2013,01,11,06,13,-1.30
2013,01,11,06,14,-1.40
2013,01,11,06,15,-1.40
2013,01,11,06,16,-1.40
2013,01,11,06,17,-1.40
2013,01,11,06,18,-1.40
2013,01,11,06,19,-1.40
2013,01,11,06,20,-1.40
2013,01,11,06,21,-1.40
2013,01,11,06,22,-1.40
2013,01,11,06,23,-1.40
2013,01,11,06,24,-1.40
2013,01,11,06,25,-1.40
2013,01,11,06,26,-1.30
2013,01,11,06,27,-1.30
2013,01,11,06,28,-1.30
2013,01,11,06,29,-1.30
2013,01,11,06,30,-1.30
2013,01,11,06,31,-1.30
2013,01,11,06,32,-1.30
2013,01,11,06,33,-1.30
2013,01,11,06,34,-1.30
2013,01,11,06,35,-1.30
2013,01,11,06,36,-1.30
2013,01,11,06,37,-1.30
2013,01,11,06,38,-1.40
2013,01,11,06,39,-1.40
2013,01,11,06,40,-1.40
2013,01,11,06,41,-1.40
2013,01,11,06,42,-1.40
2013,01,11,06,43,-1.40
2013,01,11,06,44,-1.40
2013,01,11,06,45,-1.40
2013,01,11,06,46,-1.40
2013,01,11,06,47,-1.40
2013,01,11,06,48,-1.40
2013,01,11,06,49,-1.40
2013,01,11,06,50,-1.40
2013,01,11,06,51,-1.40
2013,01,11,06,52,-1.40
2013,01,11,06,53,-1.50
2013,01,11,06,54,-1.40
2013,01,11,06,55,-1.40
2013,01,11,06,56,-1.40
2013,01,11,06,57,-1.40
2013,01,11,06,58,-1.40
2013,01,11,06,59,-1.50
2013,01,11,07,00,-1.50
2013,01,11,07,01,-1.50
2013,01,11,07,02,-1.50
2013,01,11,07,03,-1.50
2013,01,11,07,04,-1.50
2013,01,11,07,05,-1.50
2013,01,11,07,06,-1.50
2013,01,11,07,07,-1.50
2013,01,11,07,08,-1.50
2013,01,11,07,09,-1.50
2013,01,11,07,10,-1.40
2013,01,11,07,11,-1.40
2013,01,11,07,12,-1.40
2013,01,11,07,13,-1.40
2013,01,11,07,14,-1.40
2013,01,11,07,15,-1.40
2013,01,11,07,16,-1.40
2013,01,11,07,17,-1.40
2013,01,11,07,18,-1.40
2013,01,11,07,19,-1.30
2013,01,11,07,20,-1.30
2013,01,11,07,21,-1.30
2013,01,11,07,22,-1.30
2013,01,11,07,23,-1.30
2013,01,11,07,24,-1.30
2013,01,11,07,25,-1.30
2013,01,11,07,26,-1.30
2013,01,11,07,27,-1.30
2013,01,11,07,28,-1.30
2013,01,11,07,29,-1.30
2013,01,11,07,30,-1.30
2013,01,11,07,31,-1.30
2013,01,11,07,32,-1.30
2013,01,11,07,33,-1.30
2013,01,11,07,34,-1.40
2013,01,11,07,35,-1.40
2013,01,11,07,36,-1.40
2013,01,11,07,37,-1.40
2013,01,11,07,38,-1.40
2013,01,11,07,39,-1.40
2013,01,11,07,40,-1.40
2013,01,11,07,41,-1.40
2013,01,11,07,42,-1.40
2013,01,11,07,43,-1.40
2013,01,11,07,44,-1.40
2013,01,11,07,45,-1.40
2013,01,11,07,46,-1.40
2013,01,11,07,47,-1.40
2013,01,11,07,48,-1.40
2013,01,11,07,49,-1.40
2013,01,11,07,50,-1.40
2013,01,11,07,51,-1.40
2013,01,11,07,52,-1.40
2013,01,11,07,53,-1.30
2013,01,11,07,54,-1.30
2013,01,11,07,55,-1.30
2013,01,11,07,56,-1.30
2013,01,11,07,57,-1.30
2013,01,11,07,58,-1.30
2013,01,11,07,59,-1.30
2013,01,11,08,00,-1.30
2013,01,11,08,01,-1.30
2013,01,11,08,02,-1.20
2013,01,11,08,03,-1.20
2013,01,11,08,04,-1.20
2013,01,11,08,05,-1.20
2013,01,11,08,06,-1.20
2013,01,11,08,07,-1.20
2013,01,11,08,08,-1.10
2013,01,11,08,09,-1.10
2013,01,11,08,10,-1.10
2013,01,11,08,11,-1.10
2013,01,11,08,12,-1.10
2013,01,11,08,13,-1.10
2013,01,11,08,14,-1.10
2013,01,11,08,15,-1.10
2013,01,11,08,16,-1.10
2013,01,11,08,17,-1.20
2013,01,11,08,18,-1.20
2013,01,11,08,19,-1.20
2013,01,11,08,20,-1.20
2013,01,11,08,21,-1.20
2013,01,11,08,22,-1.20
2013,01,11,08,23,-1.20
2013,01,11,08,24,-1.30
2013,01,11,08,25,-1.30
2013,01,11,08,26,-1.30
2013,01,11,08,27,-1.30
2013,01,11,08,28,-1.30
2013,01,11,08,29,-1.30
2013,01,11,08,30,-1.30
2013,01,11,08,31,-1.30
2013,01,11,08,32,-1.30
2013,01,11,08,33,-1.30
2013,01,11,08,34,-1.30
2013,01,11,08,35,-1.30
2013,01,11,08,36,-1.30
2013,01,11,08,37,-1.30
2013,01,11,08,38,-1.30
2013,01,11,08,39,-1.30
2013,01,11,08,40,-1.30
2013,01,11,08,41,-1.30
2013,01,11,08,42,-1.30
2013,01,11,08,43,-1.30
2013,01,11,08,44,-1.30
2013,01,11,08,45,-1.30
2013,01,11,08,46,-1.20
2013,01,11,08,47,-1.20
2013,01,11,08,48,-1.20
2013,01,11,08,49,-1.20
2013,01,11,08,50,-1.20
2013,01,11,08,51,-1.20
2013,01,11,08,52,-1.20
2013,01,11,08,53,-1.10
2013,01,11,08,54,-1.10
2013,01,11,08,55,-1.10
2013,01,11,08,56,-1.00
2013,01,11,08,57,-1.00
2013,01,11,08,58,-0.90
2013,01,11,08,59,-0.90
2013,01,11,09,00,-0.90
2013,01,11,09,01,-0.90
2013,01,11,09,02,-0.80
2013,01,11,09,03,-0.80
2013,01,11,09,04,-0.80
2013,01,11,09,05,-0.70
2013,01,11,09,06,-0.70
2013,01,11,09,07,-0.70
2013,01,11,09,08,-0.60
2013,01,11,09,09,-0.60
2013,01,11,09,10,-0.60
2013,01,11,09,11,-0.50
2013,01,11,09,12,-0.50
2013,01,11,09,13,-0.40
2013,01,11,09,14,-0.40
2013,01,11,09,15,-0.40
2013,01,11,09,16,-0.40
2013,01,11,09,17,-0.30
2013,01,11,09,18,-0.30
2013,01,11,09,19,-0.30
2013,01,11,09,20,-0.30
2013,01,11,09,21,-0.20
2013,01,11,09,22,-0.20
2013,01,11,09,23,-0.20
2013,01,11,09,24,-0.20
2013,01,11,09,25,-0.20
2013,01,11,09,26,-0.10
2013,01,11,09,27,-0.10
2013,01,11,09,28,-0.10
2013,01,11,09,29,-0.10
2013,01,11,09,30,0.00
2013,01,11,09,31,0.00
2013,01,11,09,32,0.10
2013,01,11,09,33,0.10
2013,01,11,09,34,0.10
2013,01,11,09,35,0.10
2013,01,11,09,36,0.20
2013,01,11,09,37,0.20
2013,01,11,09,38,0.20
2013,01,11,09,39,0.20
2013,01,11,09,40,0.20
2013,01,11,09,41,0.20
2013,01,11,09,42,0.20
2013,01,11,09,43,0.20
2013,01,11,09,44,0.20
2013,01,11,09,45,0.20
2013,01,11,09,46,0.20
2013,01,11,09,47,0.30
2013,01,11,09,48,0.30
2013,01,11,09,49,0.30
2013,01,11,09,50,0.30
2013,01,11,09,51,0.30
2013,01,11,09,52,0.40
2013,01,11,09,53,0.40
2013,01,11,09,54,0.40
2013,01,11,09,55,0.40
2013,01,11,09,56,0.40
2013,01,11,09,57,0.40
2013,01,11,09,58,0.40
2013,01,11,09,59,0.40
2013,01,11,10,00,0.40
2013,01,11,10,01,0.50
2013,01,11,10,02,0.50
2013,01,11,10,03,0.50
2013,01,11,10,04,0.60
2013,01,11,10,05,0.60
2013,01,11,10,06,0.60
2013,01,11,10,07,0.70
2013,01,11,10,08,0.70
2013,01,11,10,09,0.80
2013,01,11,10,10,0.80
2013,01,11,10,11,0.90
2013,01,11,10,12,0.90
2013,01,11,10,13,0.90
2013,01,11,10,14,1.00
2013,01,11,10,15,1.00
2013,01,11,10,16,1.10
2013,01,11,10,17,1.20
2013,01,11,10,18,1.30
2013,01,11,10,19,1.30
2013,01,11,10,20,1.40
2013,01,11,10,21,1.50
2013,01,11,10,22,1.50
2013,01,11,10,23,1.60
2013,01,11,10,24,1.60
2013,01,11,10,25,1.60
2013,01,11,10,26,1.60
2013,01,11,10,27,1.70
2013,01,11,10,28,1.70
2013,01,11,10,29,1.70
2013,01,11,10,30,1.70
2013,01,11,10,31,1.70
2013,01,11,10,32,1.70
2013,01,11,10,33,1.70
2013,01,11,10,34,1.80
2013,01,11,10,35,1.80
2013,01,11,10,36,1.90
2013,01,11,10,37,1.90
2013,01,11,10,38,1.90
2013,01,11,10,39,2.00
2013,01,11,10,40,2.00
2013,01,11,10,41,2.00
2013,01,11,10,42,2.10
2013,01,11,10,43,2.10
2013,01,11,10,44,2.10
2013,01,11,10,45,2.10
2013,01,11,10,46,2.20
2013,01,11,10,47,2.20
2013,01,11,10,48,2.20
2013,01,11,10,49,2.20
2013,01,11,10,50,2.20
2013,01,11,10,51,2.20
2013,01,11,10,52,2.30
2013,01,11,10,53,2.30
2013,01,11,10,54,2.30
2013,01,11,10,55,2.30
2013,01,11,10,56,2.30
2013,01,11,10,57,2.30
2013,01,11,10,58,2.30
2013,01,11,10,59,2.40
2013,01,11,11,00,2.40
2013,01,11,11,01,2.40
2013,01,11,11,02,2.50
2013,01,11,11,03,2.50
2013,01,11,11,04,2.60
2013,01,11,11,05,2.60
2013,01,11,11,06,2.60
2013,01,11,11,07,2.70
2013,01,11,11,08,2.70
2013,01,11,11,09,2.70
2013,01,11,11,10,2.70
2013,01,11,11,11,2.70
2013,01,11,11,12,2.70
2013,01,11,11,13,2.70
2013,01,11,11,14,2.70
2013,01,11,11,15,2.70
2013,01,11,11,16,2.70
2013,01,11,11,17,2.70
2013,01,11,11,18,2.70
2013,01,11,11,19,2.70
2013,01,11,11,20,2.70
2013,01,11,11,21,2.80
2013,01,11,11,22,2.80
2013,01,11,11,23,2.90
2013,01,11,11,24,2.90
2013,01,11,11,25,2.90
2013,01,11,11,26,3.00
2013,01,11,11,27,3.00
2013,01,11,11,28,3.00
2013,01,11,11,29,3.00
2013,01,11,11,30,3.00
2013,01,11,11,31,3.00
2013,01,11,11,32,3.00
2013,01,11,11,33,3.00
2013,01,11,11,34,3.10
2013,01,11,11,35,3.00
2013,01,11,11,36,3.10
2013,01,11,11,37,3.00
2013,01,11,11,38,3.00
2013,01,11,11,39,3.00
2013,01,11,11,40,3.10
2013,01,11,11,41,3.10
2013,01,11,11,42,3.10
2013,01,11,11,43,3.10
2013,01,11,11,44,3.10
2013,01,11,11,45,3.10
2013,01,11,11,46,3.10
2013,01,11,11,47,3.10
2013,01,11,11,48,3.10
2013,01,11,11,49,3.10
2013,01,11,11,50,3.20
2013,01,11,11,51,3.20
2013,01,11,11,52,3.20
2013,01,11,11,53,3.20
2013,01,11,11,54,3.10
2013,01,11,11,55,3.10
2013,01,11,11,56,3.10
2013,01,11,11,57,3.10
2013,01,11,11,58,3.10
2013,01,11,11,59,3.10
2013,01,11,12,00,3.10
2013,01,11,12,01,3.00
2013,01,11,12,02,3.00
2013,01,11,12,03,2.90
2013,01,11,12,04,2.90
2013,01,11,12,05,2.80
2013,01,11,12,06,2.80
2013,01,11,12,07,2.80
2013,01,11,12,08,2.80
2013,01,11,12,09,2.80
2013,01,11,12,10,2.90
2013,01,11,12,11,2.90
2013,01,11,12,12,3.00
2013,01,11,12,13,3.00
2013,01,11,12,14,3.00
2013,01,11,12,15,2.90
2013,01,11,12,16,2.90
2013,01,11,12,17,2.90
2013,01,11,12,18,2.90
2013,01,11,12,19,2.90
2013,01,11,12,20,2.90
2013,01,11,12,21,2.90
2013,01,11,12,22,2.90
2013,01,11,12,23,2.90
2013,01,11,12,24,3.00
2013,01,11,12,25,3.00
2013,01,11,12,26,3.00
2013,01,11,12,27,3.10
2013,01,11,12,28,3.10
2013,01,11,12,29,3.20
2013,01,11,12,30,3.20
2013,01,11,12,31,3.20
2013,01,11,12,32,3.20
2013,01,11,12,33,3.20
2013,01,11,12,34,3.20
2013,01,11,12,35,3.20
2013,01,11,12,36,3.20
2013,01,11,12,37,3.20
2013,01,11,12,38,3.20
2013,01,11,12,39,3.20
2013,01,11,12,40,3.20
2013,01,11,12,41,3.20
2013,01,11,12,42,3.30
2013,01,11,12,43,3.30
2013,01,11,12,44,3.30
2013,01,11,12,45,3.30
2013,01,11,12,46,3.30
2013,01,11,12,47,3.30
2013,01,11,12,48,3.40
2013,01,11,12,49,3.40
2013,01,11,12,50,3.50
2013,01,11,12,51,3.40
2013,01,11,12,52,3.40
2013,01,11,12,53,3.40
2013,01,11,12,54,3.50
2013,01,11,12,55,3.50
2013,01,11,12,56,3.50
2013,01,11,12,57,3.40
2013,01,11,12,58,3.50
2013,01,11,12,59,3.50
2013,01,11,13,00,3.50
2013,01,11,13,01,3.50
2013,01,11,13,02,3.40
2013,01,11,13,03,3.40
2013,01,11,13,04,3.40
2013,01,11,13,05,3.40
2013,01,11,13,06,3.30
2013,01,11,13,07,3.30
2013,01,11,13,08,3.30
2013,01,11,13,09,3.20
2013,01,11,13,10,3.10
2013,01,11,13,11,3.10
2013,01,11,13,12,3.10
2013,01,11,13,13,3.10
2013,01,11,13,14,3.10
2013,01,11,13,15,3.20
2013,01,11,13,16,3.20
2013,01,11,13,17,3.20
2013,01,11,13,18,3.20
2013,01,11,13,19,3.20
2013,01,11,13,20,3.20
2013,01,11,13,21,3.20
2013,01,11,13,22,3.30
2013,01,11,13,23,3.30
2013,01,11,13,24,3.40
2013,01,11,13,25,3.40
2013,01,11,13,26,3.40
2013,01,11,13,27,3.40
2013,01,11,13,28,3.40
2013,01,11,13,29,3.40
2013,01,11,13,30,3.50
2013,01,11,13,31,3.50
2013,01,11,13,32,3.60
2013,01,11,13,33,3.60
2013,01,11,13,34,3.60
2013,01,11,13,35,3.50
2013,01,11,13,36,3.50
2013,01,11,13,37,3.40
2013,01,11,13,38,3.40
2013,01,11,13,39,3.40
2013,01,11,13,40,3.40
2013,01,11,13,41,3.50
2013,01,11,13,42,3.50
2013,01,11,13,43,3.60
2013,01,11,13,44,3.60
2013,01,11,13,45,3.60
2013,01,11,13,46,3.50
2013,01,11,13,47,3.50
2013,01,11,13,48,3.40
2013,01,11,13,49,3.30
2013,01,11,13,50,3.30
2013,01,11,13,51,3.20
2013,01,11,13,52,3.20
2013,01,11,13,53,3.20
2013,01,11,13,54,3.20
2013,01,11,13,55,3.30
2013,01,11,13,56,3.40
2013,01,11,13,57,3.50
2013,01,11,13,58,3.50
2013,01,11,13,59,3.60
2013,01,11,14,00,3.60
2013,01,11,14,01,3.60
2013,01,11,14,02,3.60
2013,01,11,14,03,3.60
2013,01,11,14,04,3.60
2013,01,11,14,05,3.70
2013,01,11,14,06,3.70
2013,01,11,14,07,3.70
2013,01,11,14,08,3.60
2013,01,11,14,09,3.60
2013,01,11,14,10,3.50
2013,01,11,14,11,3.40
2013,01,11,14,12,3.40
2013,01,11,14,13,3.50
2013,01,11,14,14,3.50
2013,01,11,14,15,3.50
2013,01,11,14,16,3.60
2013,01,11,14,17,3.70
2013,01,11,14,18,3.70
2013,01,11,14,19,3.70
2013,01,11,14,20,3.80
2013,01,11,14,21,3.80
2013,01,11,14,22,3.80
2013,01,11,14,23,3.80
2013,01,11,14,24,3.80
2013,01,11,14,25,3.80
2013,01,11,14,26,3.80
2013,01,11,14,27,3.80
2013,01,11,14,28,3.80
2013,01,11,14,29,3.70
2013,01,11,14,30,3.70
2013,01,11,14,31,3.70
2013,01,11,14,32,3.70
2013,01,11,14,33,3.70
2013,01,11,14,34,3.70
2013,01,11,14,35,3.70
2013,01,11,14,36,3.70
2013,01,11,14,37,3.60
2013,01,11,14,38,3.50
2013,01,11,14,39,3.50
2013,01,11,14,40,3.50
2013,01,11,14,41,3.40
2013,01,11,14,42,3.40
2013,01,11,14,43,3.40
2013,01,11,14,44,3.40
2013,01,11,14,45,3.40
2013,01,11,14,46,3.40
2013,01,11,14,47,3.40
2013,01,11,14,48,3.30
2013,01,11,14,49,3.30
2013,01,11,14,50,3.30
2013,01,11,14,51,3.30
2013,01,11,14,52,3.20
2013,01,11,14,53,3.20
2013,01,11,14,54,3.10
2013,01,11,14,55,3.10
2013,01,11,14,56,3.10
2013,01,11,14,57,3.10
2013,01,11,14,58,3.10
2013,01,11,14,59,3.10
2013,01,11,15,00,3.00
2013,01,11,15,01,3.00
2013,01,11,15,02,3.00
2013,01,11,15,03,2.90
2013,01,11,15,04,2.80
2013,01,11,15,05,2.80
2013,01,11,15,06,2.70
2013,01,11,15,07,2.60
2013,01,11,15,08,2.50
2013,01,11,15,09,2.40
2013,01,11,15,10,2.30
2013,01,11,15,11,2.30
2013,01,11,15,12,2.20
2013,01,11,15,13,2.10
2013,01,11,15,14,2.10
2013,01,11,15,15,2.10
2013,01,11,15,16,2.00
2013,01,11,15,17,1.90
2013,01,11,15,18,1.90
2013,01,11,15,19,1.80
2013,01,11,15,20,1.80
2013,01,11,15,21,1.70
2013,01,11,15,22,1.60
2013,01,11,15,23,1.50
2013,01,11,15,24,1.40
2013,01,11,15,25,1.30
2013,01,11,15,26,1.30
2013,01,11,15,27,1.30
2013,01,11,15,28,1.30
2013,01,11,15,29,1.20
2013,01,11,15,30,1.20
2013,01,11,15,31,1.20
2013,01,11,15,32,1.10
2013,01,11,15,33,1.10
2013,01,11,15,34,1.10
2013,01,11,15,35,1.10
2013,01,11,15,36,1.10
2013,01,11,15,37,1.10
2013,01,11,15,38,1.00
2013,01,11,15,39,1.00
2013,01,11,15,40,1.00
2013,01,11,15,41,1.00
2013,01,11,15,42,1.00
2013,01,11,15,43,0.90
2013,01,11,15,44,0.90
2013,01,11,15,45,0.90
2013,01,11,15,46,0.90
2013,01,11,15,47,0.90
2013,01,11,15,48,0.90
2013,01,11,15,49,0.90
2013,01,11,15,50,0.90
2013,01,11,15,51,0.90
2013,01,11,15,52,0.80
2013,01,11,15,53,0.80
2013,01,11,15,54,0.80
2013,01,11,15,55,0.80
2013,01,11,15,56,0.80
2013,01,11,15,57,0.80
2013,01,11,15,58,0.80
2013,01,11,15,59,0.80
2013,01,11,16,00,0.80
2013,01,11,16,01,0.80
2013,01,11,16,02,0.80
2013,01,11,16,03,0.80
2013,01,11,16,04,0.80
2013,01,11,16,05,0.80
2013,01,11,16,06,0.70
2013,01,11,16,07,0.70
2013,01,11,16,08,0.70
2013,01,11,16,09,0.60
2013,01,11,16,10,0.60
2013,01,11,16,11,0.60
2013,01,11,16,12,0.60
2013,01,11,16,13,0.50
2013,01,11,16,14,0.50
2013,01,11,16,15,0.50
2013,01,11,16,16,0.40
2013,01,11,16,17,0.40
2013,01,11,16,18,0.40
2013,01,11,16,19,0.40
2013,01,11,16,20,0.30
2013,01,11,16,21,0.30
2013,01,11,16,22,0.30
2013,01,11,16,23,0.30
2013,01,11,16,24,0.30
2013,01,11,16,25,0.20
2013,01,11,16,26,0.20
2013,01,11,16,27,0.20
2013,01,11,16,28,0.20
2013,01,11,16,29,0.10
2013,01,11,16,30,0.10
2013,01,11,16,31,0.10
2013,01,11,16,32,0.10
2013,01,11,16,33,0.10
2013,01,11,16,34,0.00
2013,01,11,16,35,0.00
2013,01,11,16,36,0.00
2013,01,11,16,37,-0.10
2013,01,11,16,38,-0.10
2013,01,11,16,39,-0.10
2013,01,11,16,40,-0.10
2013,01,11,16,41,-0.10
2013,01,11,16,42,-0.10
2013,01,11,16,43,-0.20
2013,01,11,16,44,-0.20
2013,01,11,16,45,-0.20
2013,01,11,16,46,-0.20
2013,01,11,16,47,-0.20
2013,01,11,16,48,-0.30
2013,01,11,16,49,-0.30
2013,01,11,16,50,-0.30
2013,01,11,16,51,-0.30
2013,01,11,16,52,-0.30
2013,01,11,16,53,-0.30
2013,01,11,16,54,-0.30
2013,01,11,16,55,-0.40
2013,01,11,16,56,-0.40
2013,01,11,16,57,-0.40
2013,01,11,16,58,-0.30
2013,01,11,16,59,-0.30
2013,01,11,17,00,-0.40
2013,01,11,17,01,-0.40
2013,01,11,17,02,-0.40
2013,01,11,17,03,-0.40
2013,01,11,17,04,-0.40
2013,01,11,17,05,-0.40
2013,01,11,17,06,-0.40
2013,01,11,17,07,-0.40
2013,01,11,17,08,-0.40
2013,01,11,17,09,-0.40
2013,01,11,17,10,-0.50
2013,01,11,17,11,-0.50
2013,01,11,17,12,-0.50
2013,01,11,17,13,-0.50
2013,01,11,17,14,-0.60
2013,01,11,17,15,-0.60
2013,01,11,17,16,-0.60
2013,01,11,17,17,-0.60
2013,01,11,17,18,-0.60
2013,01,11,17,19,-0.70
2013,01,11,17,20,-0.70
2013,01,11,17,21,-0.70
2013,01,11,17,22,-0.70
2013,01,11,17,23,-0.70
2013,01,11,17,24,-0.70
2013,01,11,17,25,-0.70
2013,01,11,17,26,-0.70
2013,01,11,17,27,-0.70
2013,01,11,17,28,-0.70
2013,01,11,17,29,-0.70
2013,01,11,17,30,-0.70
2013,01,11,17,31,-0.70
2013,01,11,17,32,-0.70
2013,01,11,17,33,-0.70
2013,01,11,17,34,-0.70
2013,01,11,17,35,-0.70
2013,01,11,17,36,-0.70
2013,01,11,17,37,-0.70
2013,01,11,17,38,-0.70
2013,01,11,17,39,-0.70
2013,01,11,17,40,-0.70
2013,01,11,17,41,-0.70
2013,01,11,17,42,-0.70
2013,01,11,17,43,-0.70
2013,01,11,17,44,-0.70